Regional Weather Roundup
Issued by NWS Northern Indiana

Home | Current Version | Previous Version | Text Only | Print | Product List | Glossary On
Versions: 1 2 3 4 5 6 7 8 9 10 11 12 13 14 15 16 17 18 19 20 21 22 23 24 25 26 27 28 29 30 31 32 33 34 35 36 37 38 39 40 41 42 43 44 45 46 47 48 49 50
000
ASUS43 KIWX 241010
RWRIWX

KIWX WEATHER ROUNDUP
NATIONAL WEATHER SERVICE NORTHERN INDIANA
600 AM EDT FRI OCT 24 2014

NOTE: "FAIR" INDICATES FEW OR NO CLOUDS BELOW 12,000 FEET WITH NO
SIGNIFICANT WEATHER AND/OR OBSTRUCTIONS TO VISIBILITY.

* THESE STATIONS ARE NOT UNDER NWS QUALITY CONTROL. THEY ALSO MAY NOT
  REPORT WEATHER SUCH AS PRECIPITATION OR FOG.

INZ001>027-241100-
NORTHERN INDIANA

CITY           SKY/WX    TMP DP  RH WIND       PRES   REMARKS
GARY*          CLOUDY    54  45  71 S3        30.07R
VALPARAISO     CLOUDY    51  44  77 SW7       30.07R
MICHIGAN CITY* CLOUDY    50  41  71 CALM      30.07R
LAPORTE*       CLOUDY    51  45  79 CALM      30.08R
KNOX*          CLOUDY    48  44  87 S5        30.07R
SOUTH BEND     CLOUDY    51  42  71 SW3       30.08R
GOSHEN         PTCLDY    45  40  82 S5        30.07S
MONTICELLO*    CLOUDY    48  44  87 S3        30.08R
LOGANSPORT*    DRIZZLE   45  41  87 S5        30.10S
ROCHESTER*     LGT RAIN  50  45  81 SW6       30.09S
WARSAW*        MOCLDY    43  41  93 CALM      30.08S
ANGOLA*        PTCLDY    39  39 100 CALM      30.08R
FORT WAYNE     PTCLDY    39  36  89 S5        30.10S
HUNTINGTON*    PTCLDY    39  38  99 S5        30.09S
PERU/GRISSOM   CLOUDY    46  46 100 S5        30.09
MARION*        PTCLDY    39  37  90 CALM      30.11S

$$
INZ028>050-241100-
CENTRAL INDIANA

CITY           SKY/WX    TMP DP  RH WIND       PRES   REMARKS
LAFAYETTE      LGT RAIN  47  44  90 CALM      30.10R
KOKOMO*        CLOUDY    45  39  81 S3        30.10S
MUNCIE*        PTCLDY    39  36  89 S5        30.10S
INDIANAPOLIS   PTCLDY    43  39  86 CALM      30.10R

$$
MIZ043>046-050>051-056>058-064>065-071>073-077>080-241100-
SOUTHWEST LOWER MICHIGAN

CITY           SKY/WX    TMP DP  RH WIND       PRES   REMARKS
BATTLE CREEK   MOCLDY    42  39  89 S5        30.07S FOG
BENTON HARBOR  CLOUDY    51  43  74 SW3       30.06R
COLDWATER*     MOCLDY    43  41  93 CALM      30.07S
HILLSDALE*     PTCLDY    36  36 100 CALM      30.07S FOG
HOLLAND        CLOUDY    52  45  77 S5        30.05S
GRAND RAPIDS   MOCLDY    46  41  82 CALM      30.06R
KALAMAZOO      CLOUDY    47  41  80 S5        30.07S HAZE
STURGIS*       MOCLDY    43  39  87 CALM      30.07S
THREE RIVERS*  CLOUDY    47  42  84 CALM      30.07S

$$
OHZ001>008-015>018-024>025-241100-
NORTHWEST OHIO

CITY           SKY/WX    TMP DP  RH WIND       PRES   REMARKS
WAUSEON*       FAIR      32  32 100 CALM      30.09S FOG
DEFIANCE       CLEAR     35  33  92 S3        30.10R
FINDLAY        MOCLDY    39  37  92 S3        30.10R
TOLEDO EXPRESS MOCLDY    35  34  96 CALM      30.09S FOG
TOLEDO METCALF MOCLDY    40  36  86 CALM      30.11S
LIMA           MOCLDY    40  36  86 CALM      30.10S

$$
AND FOR LAKE MICHIGAN COASTAL AND OPEN LAKE BUOY OBSERVATIONS

STATION/POSITION TEMP    WIND        PRES    VSBY  WAVE
                 AIR SEA DIR/SP/G                  HT/PER
                 (F)     (DEG/KT/KT) (MB)    (MI)  (FT/S)
CALUMET HARBOR    54     220/  3/  5 1016.7R
MICHIGAN CITY     53     190/  7/  8   N/A
SAINT JOSEPH      54                 1018.6S
SOUTH LAKE BUOY   55 54  240/ 10/ 12 1017.9R         2/ 3

$$
&&



USA.gov is the U.S. government's official web portal to all federal, state and local government web resources and services.